Location: North Evanston
(42.0634°N, 87.6976°W)
Time: 10:41:48
(UTC+00:00)

Tiros 1 - All Passes

Search period start: 15 May 2026 00:00
Search period end: 25 May 2026 00:00
Orbit: 618 x 648 km, 48.4° (Epoch: 14 May)

Date Brightness Start Highest point End Pass type
(mag) Time Alt. Az. Time Alt. Az. Time Alt. Az.
15 May - 03:58:30 10° S 04:01:29 17° SE 04:04:26 10° E night (unlit)
15 May - 05:38:12 10° SW 05:42:49 78° SSE 05:47:24 10° ENE visible
15 May - 07:20:36 10° W 07:24:58 42° NNW 07:29:19 10° ENE visible
15 May - 09:03:11 10° WNW 09:07:31 40° N 09:11:49 10° E visible
15 May - 10:45:09 10° WNW 10:49:44 88° SW 10:54:17 10° ESE daylight
15 May - 12:27:52 10° W 12:31:08 20° SW 12:34:24 10° S daylight
16 May - 04:18:28 10° SSW 04:22:38 34° SE 04:26:47 10° ENE visible
16 May - 05:59:46 10° WSW 06:04:21 64° NNW 06:08:55 10° ENE visible
16 May - 07:42:29 10° WNW 07:46:46 37° N 07:51:01 10° ENE visible
16 May - 09:24:47 10° WNW 09:29:15 52° NNE 09:33:42 10° E visible
16 May - 11:06:46 10° WNW 11:11:09 48° SW 11:15:31 10° SE daylight
17 May - 03:00:30 10° SSE 03:02:45 13° SE 03:05:00 10° ESE night (unlit)
17 May - 04:39:24 10° SW 04:43:59 65° SSE 04:48:32 10° ENE visible
17 May - 06:21:36 10° W 06:26:02 45° NNW 06:30:27 10° ENE visible
17 May - 08:04:17 10° WNW 08:08:35 38° N 08:12:51 10° ENE visible
17 May - 09:46:17 10° WNW 09:50:53 80° NNE 09:55:26 10° ESE visible
17 May - 11:28:44 10° W 11:32:24 24° SW 11:36:04 10° S daylight
18 May - 03:19:56 10° SSW 03:23:52 28° SE 03:27:48 10° E night (unlit)
18 May - 05:00:50 10° WSW 05:05:28 74° NNW 05:10:05 10° ENE visible
18 May - 06:43:30 10° WNW 06:47:48 38° N 06:52:05 10° ENE visible
18 May - 08:25:54 10° WNW 08:30:21 47° NNE 08:34:45 10° E visible
18 May - 10:07:51 10° WNW 10:12:21 59° SW 10:16:48 10° SE daylight
18 May - 11:52:00 10° WSW 11:53:29 11° SW 11:54:57 10° SSW daylight
19 May - 02:03:18 10° SE 02:04:02 10° SE 02:04:47 10° ESE visible
19 May - 03:40:38 10° SW 03:45:09 54° SE 03:49:39 10° ENE visible
19 May - 05:22:36 10° W 05:27:07 50° NNW 05:31:35 10° ENE visible
19 May - 07:05:20 10° WNW 07:09:38 37° N 07:13:54 10° ENE visible
19 May - 08:47:25 10° WNW 08:52:00 69° NNE 08:56:33 10° ESE visible
19 May - 10:29:39 10° WNW 10:33:39 30° SW 10:37:36 10° SSE daylight
20 May - 02:21:30 10° S 02:25:06 22° SE 02:28:42 10° E visible
20 May - 04:01:57 10° WSW 04:06:36 86° NNW 04:11:14 10° ENE visible
20 May - 05:44:30 10° WNW 05:48:52 39° N 05:53:11 10° ENE visible
20 May - 07:27:00 10° WNW 07:31:25 43° NNE 07:35:47 10° E visible
20 May - 09:08:57 10° WNW 09:13:31 71° SSW 09:18:03 10° SE visible
20 May - 10:52:14 10° W 10:54:47 15° SW 10:57:18 10° SSW daylight
21 May - 02:41:55 10° SW 02:46:20 44° SE 02:50:44 10° ENE visible
21 May - 04:23:38 10° W 04:28:12 55° NNW 04:32:44 10° ENE visible
21 May - 06:06:23 10° WNW 06:10:41 37° N 06:14:56 10° ENE visible
21 May - 07:48:34 10° WNW 07:53:07 60° NNE 07:57:37 10° ESE visible
21 May - 09:30:39 10° WNW 09:34:52 37° SW 09:39:03 10° SSE visible
22 May - 01:23:11 10° S 01:26:22 18° SE 01:29:31 10° E daylight
22 May - 03:03:04 10° WSW 03:07:44 81° SSE 03:12:22 10° ENE visible
22 May - 04:45:30 10° W 04:49:55 41° N 04:54:18 10° ENE visible
22 May - 06:28:06 10° WNW 06:32:28 41° N 06:36:49 10° E visible
22 May - 08:10:04 10° WNW 08:14:41 85° SSW 08:19:14 10° ESE visible
22 May - 09:52:52 10° W 09:56:03 19° SW 09:59:12 10° S visible
23 May - 01:43:16 10° SSW 01:47:32 36° SE 01:51:46 10° ENE visible
23 May - 03:24:39 10° WSW 03:29:17 63° NNW 03:33:53 10° ENE visible
23 May - 05:07:24 10° WNW 05:11:43 37° N 05:16:00 10° ENE visible
23 May - 06:49:41 10° WNW 06:54:12 53° NNE 06:58:41 10° E visible
23 May - 08:31:42 10° WNW 08:36:05 46° SW 08:40:26 10° SE visible
24 May - 00:25:06 10° SSE 00:27:37 14° SE 00:30:08 10° E daylight
24 May - 02:04:14 10° SW 02:08:53 68° SSE 02:13:30 10° ENE visible
24 May - 03:46:30 10° W 03:50:58 45° NNW 03:55:25 10° ENE visible
24 May - 05:29:10 10° WNW 05:33:31 39° N 05:37:50 10° ENE visible
24 May - 07:11:11 10° WNW 07:15:49 82° NNE 07:20:23 10° ESE visible
24 May - 08:53:41 10° W 08:57:18 23° SW 09:00:54 10° S visible
